Location: Belvedere Heights
(33.9836°N, 117.3109°W)
Time: 17:56:20
(UTC+00:00)

Atlas Centaur 2 - Pass Details

Date: 21 March 2023
Orbit: 458 x 1293 km, 30.4° (Epoch: 09 June)

Event Time Altitude Azimuth Distance (km) Brightness Sun altitude
Exits shadow 13:15:30 - 253° (WSW) 3,380 4.7 -8.3°
Reaches altitude 10° 13:16:03 10° 250° (WSW) 3,275 4.6 -8.2°
Maximum altitude 13:20:46 16° 215° (SW) 2,744 4.5 -7.2°
Drops below altitude 10° 13:25:16 10° 180° (S) 3,088 5.1 -6.3°
Sets 13:29:11 0° 160° (SSE) 3,910 5.9 -5.5°
